GFSFLT2_700_temp_000.txt.gz
Temp
4 4 4 4 4 4 4 5 4 4 4 4 4 4 4 4 4 4 4 5 4 4 4 4 4 4 4 3 3 3 3 3
4 4 4 4 4 4 5 5 5 5 4 4 4 4 4 4 4 3 3 3 4 4 4 4 4 4 4 4 4 3 3 2
4 4 4 4 4 4 4 4 4 4 4 4 4 3 3 3 3 3 3 3 3 3 3 3 3 4 4 4 4 3 3 3
5 4 3 3 4 4 4 4 4 4 4 3 3 3 3 3 3 3 3 3 3 3 3 3 3 3 3 3 3 3 3 3
4 3 3 4 4 4 4 4 4 3 3 3 3 3 3 3 2 2 2 2 2 2 2 3 3 3 3 3 2 3 3 3
3 3 3 3 4 4 4 4 4 4 3 3 3 3 3 3 3 3 2 2 2 2 2 2 2 2 2 2 2 2 2 2
3 3 3 3 4 4 4 4 4 3 3 3 3 2 2 2 2 2 2 2 2 2 1 1 1 1 1 1 1 1 2 2
3 3 3 3 4 4 3 3 3 3 3 2 2 2 2 2 2 1 1 1 1 1 1 1 0 0 0 0 0 1 1 1
3 3 3 3 3 3 3 3 3 2 2 2 2 2 1 1 1 1 0 1 0 0 0 0 0 -0 -1 -1 -1 -1 -0 0
3 3 3 3 3 2 2 2 2 2 2 2 1 1 1 0 0 0 -0 -0 -1 -1 -1 -1 -1 -1 -1 -1 -1 -1 -1 -1
3 3 3 2 2 2 2 2 2 2 1 1 1 -0 -0 -0 -0 -1 -1 -1 -1 -1 -1 -1 -2 -2 -2 -2 -2 -2 -2 -2
3 3 2 2 2 2 2 2 1 1 1 1 0 -0 -1 -1 -1 -1 -2 -2 -2 -2 -2 -2 -2 -2 -3 -3 -3 -3 -3 -3
3 2 2 2 2 1 1 1 1 0 -0 -1 -1 -1 -1 -1 -1 -1 -2 -2 -3 -3 -3 -3 -3 -3 -3 -3 -3 -3 -3 -3
3 2 2 1 1 1 0 -0 -0 -1 -1 -1 -1 -1 -2 -2 -1 -1 -2 -2 -3 -3 -3 -3 -3 -3 -4 -4 -3 -3 -3 -3
2 1 1 0 -1 -1 -1 -1 -1 -1 -2 -2 -2 -2 -2 -2 -2 -2 -2 -3 -3 -4 -4 -5 -5 -5 -4 -4 -4 -3 -3 -3
1 1 0 -0 -1 -1 -1 -1 -2 -2 -2 -2 -2 -2 -2 -2 -2 -2 -3 -4 -4 -4 -5 -5 -6 -6 -6 -6 -5 -5 -5 -5
0 -0 -0 -1 -1 -1 -2 -2 -2 -2 -2 -2 -2 -2 -2 -2 -2 -2 -3 -3 -4 -4 -6 -6 -6 -7 -7 -7 -7 -6 -6 -5
0 -0 -1 -1 -2 -2 -2 -2 -2 -2 -2 -2 -2 -2 -2 -2 -2 -2 -3 -3 -4 -4 -5 -6 -6 -7 -7 -7 -8 -8 -8 -7
-1 -1 -1 -2 -2 -2 -2 -2 -2 -3 -3 -3 -2 -2 -2 -2 -3 -3 -4 -4 -5 -5 -6 -7 -7 -6 -7 -7 -8 -8 -8 -8
-1 -2 -2 -3 -2 -3 -3 -3 -3 -3 -3 -3 -3 -3 -3 -4 -5 -5 -6 -7 -8 -8 -7 -7 -7 -7 -7 -8 -9 -9 -9 -9

GFSFLT2_700_temp_006.txt.gz
Temp
5 5 5 4 5 5 5 5 5 5 5 5 4 4 4 4 4 4 4 4 3 3 4 4 3 4 4 4 4 4 3 3
4 4 4 5 5 5 5 5 5 5 5 5 5 4 4 4 4 3 3 3 3 3 3 4 4 3 3 3 3 4 4 4
4 4 4 4 4 4 5 5 5 4 4 4 4 4 4 3 3 3 3 3 3 3 3 3 3 3 3 3 3 3 3 3
4 4 4 4 4 4 4 4 4 4 4 4 3 3 3 3 3 3 3 3 3 3 3 3 3 3 3 2 2 2 2 2
4 4 4 4 4 4 4 4 4 3 3 3 3 3 3 3 3 3 3 3 2 2 2 2 2 2 2 2 2 2 2 2
4 4 3 3 3 4 3 3 3 3 3 3 3 3 2 2 2 2 2 2 2 2 2 2 2 2 2 2 2 2 2 1
4 3 3 3 3 3 3 3 2 2 2 2 2 2 2 2 2 2 1 1 1 1 1 1 1 1 1 1 1 1 1 1
3 3 3 3 3 3 3 2 2 2 2 2 2 1 1 1 1 1 1 1 0 0 -0 -0 -0 0 0 0 0 0 1 0
3 3 3 3 3 3 2 2 2 1 1 1 1 1 0 0 0 0 0 0 0 0 0 0 0 -0 -0 -0 -0 -0 -0 -0
3 3 3 2 2 2 2 2 2 1 1 0 0 -0 -0 -1 -0 -0 -1 -0 -0 -0 -0 -0 -0 -0 -0 -1 -0 -1 -1 -1
3 3 2 2 2 2 2 2 1 1 0 -0 -1 -1 -1 -1 -1 -0 -1 -1 -1 -0 -0 -1 -0 -1 -1 -1 -1 -1 -2 -2
3 3 2 2 2 2 1 1 0 -0 -0 -1 -1 -1 -2 -2 -1 -1 -0 -1 -1 -1 -1 -1 -2 -1 -2 -2 -2 -2 -2 -2
2 3 2 2 1 1 1 0 -0 -1 -1 -1 -2 -2 -2 -2 -2 -2 -2 -2 -2 -2 -2 -2 -2 -2 -2 -2 -2 -2 -2 -3
3 2 2 2 1 1 0 -0 -1 -1 -2 -2 -2 -2 -2 -2 -2 -2 -2 -2 -2 -2 -2 -2 -2 -2 -2 -3 -3 -4 -4 -2
2 2 2 1 1 0 -0 -1 -1 -1 -2 -2 -2 -2 -2 -2 -2 -2 -2 -2 -2 -2 -2 -2 -2 -2 -3 -3 -3 -4 -4 -4
1 1 1 0 0 -0 -1 -1 -1 -1 -2 -2 -2 -2 -2 -3 -3 -3 -3 -2 -2 -2 -2 -2 -2 -2 -4 -4 -4 -4 -4 -5
1 1 0 -0 -0 -1 -1 -1 -2 -2 -2 -2 -2 -3 -3 -4 -3 -3 -3 -3 -3 -2 -2 -3 -3 -3 -4 -4 -4 -6 -5 -5
0 0 -1 -1 -1 -2 -2 -2 -3 -2 -2 -2 -3 -4 -4 -4 -3 -3 -3 -3 -3 -4 -4 -4 -4 -5 -6 -6 -6 -6 -7 -7
-1 -2 -2 -2 -2 -2 -3 -3 -3 -4 -4 -4 -4 -4 -4 -4 -4 -4 -4 -5 -5 -5 -6 -7 -7 -8 -8 -8 -8 -8 -7 -8
-2 -2 -2 -2 -3 -2 -3 -3 -4 -4 -4 -5 -5 -5 -5 -5 -5 -5 -6 -7 -8 -9 -10 -10 -10 -9 -9 -8 -9 -10 -9 -8

GFSFLT2_700_temp_009.txt.gz
Temp
6 6 5 5 5 5 5 5 5 6 5 5 5 5 4 4 4 4 4 4 4 4 4 4 4 4 4 3 3 4 3 3
5 5 5 5 6 6 6 5 5 5 5 4 4 4 4 4 3 3 3 3 3 3 3 3 3 3 3 3 3 3 3 3
4 4 5 5 5 5 5 5 5 4 4 4 4 4 3 3 3 3 3 3 3 3 3 3 3 3 3 3 2 2 3 2
4 4 5 5 5 5 4 4 4 4 4 4 3 3 3 3 3 3 3 3 2 3 3 2 2 2 2 3 2 2 2 2
4 5 4 4 4 4 3 3 3 3 3 3 3 3 3 3 2 2 2 2 2 2 2 2 2 2 2 2 2 2 1 1
3 4 4 4 4 3 3 3 3 3 3 3 3 3 3 3 2 2 2 1 1 1 1 1 1 2 1 1 1 1 1 1
3 4 4 4 3 3 3 3 3 3 3 3 2 2 2 2 2 1 1 1 1 1 1 1 1 1 1 1 1 1 1 1
3 2 3 3 3 3 3 3 3 2 2 2 2 1 1 1 1 0 1 1 1 1 1 1 1 1 1 1 1 1 1 1
3 2 3 3 3 3 3 2 2 2 2 2 1 1 0 0 -0 -0 -0 0 0 0 0 0 0 0 0 1 1 1 0 0
3 2 3 3 3 3 2 2 2 2 2 1 1 0 0 0 0 0 -0 -0 -0 -0 0 0 -0 -0 -0 -0 -1 -1 -1 -0
3 2 3 3 3 2 2 2 1 1 1 0 0 -0 -0 -1 -1 -0 -0 -1 -1 -1 -1 -1 -1 -1 -1 -1 -1 -1 -1 -1
3 2 2 3 2 2 2 2 1 1 1 0 -0 -1 -1 -1 -1 -1 -1 -1 -1 -1 -1 -1 -1 -1 -1 -1 -2 -2 -2 -2
2 2 3 2 2 2 1 1 1 0 0 -0 -1 -1 -1 -2 -2 -2 -2 -2 -2 -2 -2 -2 -2 -2 -2 -1 -1 -1 -1 -2
3 3 2 2 1 2 1 1 0 0 -1 -1 -1 -1 -2 -2 -2 -2 -2 -2 -2 -2 -2 -2 -2 -2 -2 -2 -2 -2 -2 -3
3 2 2 2 1 1 1 -0 -0 -1 -1 -2 -2 -2 -2 -2 -2 -2 -2 -3 -3 -3 -3 -3 -2 -2 -2 -3 -4 -3 -4 -4
2 2 2 1 1 1 0 -0 -1 -1 -2 -2 -2 -3 -2 -2 -2 -2 -3 -3 -3 -3 -3 -3 -3 -3 -3 -4 -4 -5 -4 -4
1 1 1 1 1 0 -1 -1 -1 -2 -2 -2 -2 -3 -3 -4 -4 -4 -4 -4 -4 -4 -4 -3 -4 -4 -4 -4 -5 -5 -7 -6
1 1 0 -0 -1 -1 -1 -2 -2 -2 -2 -2 -2 -3 -4 -5 -5 -5 -5 -5 -4 -4 -4 -5 -5 -5 -6 -6 -6 -7 -7 -8
-0 -0 -1 -2 -2 -2 -1 -1 -1 -2 -3 -3 -4 -4 -5 -5 -5 -5 -5 -5 -5 -6 -7 -7 -8 -9 -9 -9 -9 -9 -9 -9
-1 -1 -1 -1 -1 -1 -2 -3 -3 -3 -4 -5 -5 -5 -5 -5 -5 -5 -6 -6 -7 -9 -9 -9 -10 -11 -11 -11 -11 -10 -10 -10

GFSFLT2_700_temp_015.txt.gz
Temp
7 7 7 6 6 6 6 6 6 6 6 5 5 5 5 4 4 4 4 4 4 4 4 4 4 3 3 3 3 3 3 4
6 6 6 6 6 6 6 6 6 5 5 5 4 4 4 4 4 4 4 4 4 4 4 4 3 3 3 3 3 3 3 2
6 6 6 6 6 6 6 5 5 5 5 4 4 4 5 4 4 4 4 4 4 4 4 4 3 3 3 3 3 3 2 2
6 5 6 6 5 5 5 5 5 5 4 4 4 4 4 4 4 4 4 4 4 4 3 3 3 3 3 2 2 2 2 1
5 5 5 5 5 5 5 5 5 4 4 4 3 3 3 3 3 3 3 3 3 3 3 3 3 3 2 2 2 1 1 1
4 4 4 5 5 4 4 4 4 4 4 4 3 3 3 3 3 2 2 2 2 2 2 2 2 2 2 3 2 2 1 1
5 4 4 4 4 4 4 4 4 4 3 3 3 3 3 2 2 2 2 1 1 1 1 1 1 2 2 2 2 2 2 1
4 3 3 3 4 3 4 4 3 3 3 3 3 2 2 2 1 1 1 1 1 1 1 1 1 1 2 2 2 2 2 2
4 3 3 3 3 4 4 4 3 2 2 2 3 2 2 1 1 0 0 0 0 0 0 0 1 1 1 1 1 1 2 1
4 3 4 3 3 3 3 4 3 2 1 1 2 2 1 1 0 -0 -0 -0 -0 -1 -1 -0 0 0 0 0 0 0 0 0
4 4 4 4 3 2 3 3 2 2 1 1 -0 -0 0 -0 -1 -0 -0 -1 -1 -1 -1 -1 -1 -1 -1 -1 -0 -0 -1 -1
4 4 4 3 2 3 3 3 2 1 1 1 1 0 -0 -0 -2 -2 -1 -1 -1 -1 -1 -2 -2 -2 -2 -1 -1 -1 -1 -1
4 4 3 3 2 2 2 2 1 1 0 -0 -1 -1 -1 -1 -1 -1 -2 -2 -2 -2 -2 -2 -2 -2 -2 -2 -2 -2 -2 -2
4 4 3 3 2 2 2 1 1 -0 -1 -1 -1 -2 -2 -2 -2 -2 -2 -2 -2 -3 -3 -3 -3 -3 -4 -3 -3 -2 -3 -2
3 3 3 2 2 2 1 1 1 0 -1 -2 -2 -2 -2 -2 -2 -2 -3 -3 -4 -4 -4 -4 -4 -4 -5 -5 -5 -4 -4 -3
3 2 2 2 1 1 0 -0 -1 -1 -1 -1 -1 -2 -2 -2 -2 -3 -3 -4 -4 -4 -5 -5 -5 -5 -5 -6 -6 -6 -6 -5
2 2 2 2 1 1 -0 -0 -0 -1 -1 -2 -2 -3 -4 -4 -4 -4 -5 -5 -5 -5 -5 -6 -6 -6 -7 -8 -8 -8 -8 -8
2 1 -0 -1 -1 -1 -1 -1 -1 -2 -2 -3 -3 -4 -4 -4 -5 -5 -5 -5 -6 -6 -6 -7 -7 -8 -8 -10 -10 -10 -10 -11
0 -0 -1 -1 -1 -2 -3 -3 -4 -4 -4 -4 -4 -4 -5 -5 -6 -6 -6 -7 -7 -8 -8 -9 -9 -10 -11 -11 -12 -12 -12 -12
-1 -1 -1 -2 -2 -3 -3 -3 -4 -5 -5 -5 -5 -5 -6 -6 -7 -7 -7 -8 -8 -9 -10 -11 -11 -12 -12 -12 -12 -12 -12 -12

GFSFLT2_700_temp_018.txt.gz
Temp
7 6 6 6 6 6 6 6 6 6 6 5 5 5 5 5 5 4 4 4 4 3 3 3 3 3 3 3 3 3 3 3
6 6 6 6 6 6 6 6 6 5 5 5 5 5 5 5 4 4 4 4 4 4 3 3 2 2 2 2 2 2 2 3
5 5 5 6 6 6 6 5 5 5 5 5 5 5 4 4 4 4 4 4 4 4 3 3 2 2 2 2 1 1 2 2
5 5 5 6 5 5 5 5 5 5 4 4 5 4 4 4 4 4 4 3 3 3 3 3 3 2 2 1 1 1 1 1
5 5 5 5 5 5 5 5 5 4 4 4 4 4 4 4 3 3 3 3 3 3 3 3 2 2 2 2 1 0 0 1
4 4 4 4 5 5 4 4 4 4 4 4 3 3 3 3 3 2 2 2 2 2 2 2 2 1 2 2 2 2 1 0
4 3 3 3 4 4 4 4 4 4 3 3 3 3 3 2 2 2 2 2 1 1 1 1 1 1 1 2 2 2 2 2
4 4 4 4 4 3 4 3 3 2 2 3 3 3 2 2 1 1 1 1 1 1 1 1 1 1 1 1 1 1 1 1
5 4 4 4 4 4 3 3 2 2 3 3 3 2 2 1 1 0 1 0 0 -0 -0 -1 -0 0 0 0 1 0 0 0
5 4 5 4 4 3 3 3 2 3 2 2 2 2 1 1 -0 -0 -1 -1 -1 -1 -1 -1 -1 -0 0 0 -0 -0 -0 -0
4 3 4 3 3 3 3 3 2 2 2 1 1 0 -0 -1 -1 -1 -1 -2 -1 -1 -1 -1 -1 -1 -1 -1 -1 -1 -1 -1
4 4 4 2 3 3 2 2 1 1 0 0 -0 -1 -1 -2 -2 -2 -3 -2 -1 -1 -1 -1 -1 -1 -1 -1 -1 -2 -2 -2
4 4 3 2 2 2 1 1 0 -0 -0 -1 -1 -2 -2 -2 -2 -3 -2 -2 -2 -2 -2 -2 -2 -2 -2 -2 -2 -3 -3 -3
4 3 2 2 1 1 1 0 -0 -1 -1 -1 -1 -1 -2 -3 -3 -3 -3 -3 -3 -3 -3 -3 -3 -3 -3 -3 -3 -2 -3 -3
2 2 2 1 1 0 0 -0 -1 -1 -1 -1 -2 -3 -3 -2 -3 -3 -3 -4 -4 -4 -5 -5 -5 -5 -5 -5 -5 -4 -4 -4
2 2 1 1 1 0 -0 -0 -0 -1 -1 -1 -1 -2 -2 -3 -4 -4 -4 -5 -5 -6 -6 -6 -6 -6 -6 -6 -6 -7 -6 -5
2 2 2 1 1 1 1 0 -0 -1 -1 -2 -2 -2 -3 -5 -5 -5 -5 -5 -5 -5 -6 -6 -7 -7 -7 -8 -8 -8 -9 -10
2 2 1 1 -0 -0 -1 -1 -1 -2 -3 -5 -4 -4 -5 -6 -6 -6 -6 -6 -7 -7 -7 -7 -7 -8 -8 -9 -9 -10 -10 -12
1 0 -1 -1 -2 -2 -2 -2 -3 -4 -4 -6 -4 -5 -6 -6 -7 -7 -7 -7 -8 -8 -9 -9 -9 -10 -11 -12 -12 -13 -13 -12
-1 -2 -2 -2 -2 -2 -3 -4 -4 -5 -6 -6 -6 -6 -7 -8 -7 -8 -8 -9 -9 -9 -9 -10 -11 -11 -12 -13 -14 -14 -13 -13

GFSFLT2_700_temp_021.txt.gz
Temp
6 6 6 6 6 6 6 6 6 6 5 5 5 4 4 4 4 4 4 4 4 4 3 3 3 2 2 2 3 3 3 3
6 6 6 6 6 6 6 6 6 5 5 5 4 4 4 4 4 4 4 4 4 4 3 3 2 2 2 2 2 2 2 2
6 6 6 6 6 6 6 5 5 5 5 5 5 4 4 4 4 4 4 4 3 3 3 3 2 2 1 1 1 2 2 2
5 5 5 5 5 5 5 5 5 5 5 4 5 5 4 4 4 3 3 3 3 3 3 2 2 2 2 1 1 1 1 1
4 4 4 5 5 5 5 5 4 4 4 4 4 4 4 3 3 3 2 2 2 2 2 2 2 1 1 1 1 1 1 0
4 5 5 5 5 4 4 4 4 4 4 4 4 3 3 3 2 2 1 1 1 1 1 1 1 1 1 1 1 1 1 1
5 4 4 4 5 5 5 5 4 4 4 3 3 3 2 2 1 1 1 1 0 0 -0 -0 -0 0 0 0 1 1 1 1
5 5 4 4 4 4 4 4 4 3 3 3 3 2 2 2 1 1 0 -0 -1 -0 -0 -0 -0 -0 0 1 0 0 0 -0
4 4 4 3 3 3 3 3 3 3 2 2 2 2 2 1 1 1 0 -0 -1 -1 -1 -1 -0 -0 -0 -0 0 0 0 0
3 3 3 2 2 2 2 2 2 2 2 2 2 2 1 1 0 -0 -1 -1 -2 -1 -1 -1 -1 -1 -1 -0 -0 -0 -0 -0
3 4 3 1 1 1 2 2 2 2 1 1 1 0 -0 -0 -1 -1 -2 -2 -2 -2 -1 -1 -2 -2 -2 -1 -1 -1 -1 -1
3 3 2 2 1 2 2 2 2 2 1 0 -0 -1 -1 -2 -2 -2 -2 -2 -2 -2 -2 -2 -2 -2 -2 -2 -2 -2 -3 -2
3 2 3 2 2 2 2 2 1 0 -1 -0 -1 -1 -2 -2 -2 -3 -3 -3 -3 -3 -2 -2 -3 -3 -3 -3 -3 -3 -3 -3
4 3 2 2 1 1 0 -0 -1 -1 -1 -2 -2 -3 -3 -3 -3 -3 -3 -3 -3 -3 -4 -4 -4 -4 -4 -4 -4 -4 -4 -4
3 2 1 -0 -0 -1 -1 -2 -2 -2 -2 -2 -2 -2 -2 -2 -2 -2 -3 -3 -4 -5 -5 -6 -6 -6 -6 -6 -6 -6 -6 -6
1 1 0 -0 -1 -1 -1 -1 -1 -1 -1 -1 -1 -1 -2 -2 -3 -4 -5 -6 -6 -6 -6 -7 -7 -7 -7 -7 -8 -8 -8 -8
1 1 1 1 1 0 -0 -1 -1 -1 -1 -1 -3 -5 -5 -5 -6 -5 -6 -7 -7 -6 -7 -7 -7 -7 -8 -8 -8 -8 -9 -9
1 1 1 0 -1 -1 -1 -2 -2 -2 -2 -3 -5 -6 -6 -6 -6 -7 -7 -8 -8 -8 -9 -9 -9 -9 -9 -9 -9 -9 -9 -11
-0 -1 -1 -1 -2 -2 -2 -2 -2 -3 -3 -4 -5 -6 -6 -7 -7 -8 -9 -9 -9 -9 -10 -10 -10 -10 -10 -11 -11 -12 -12 -13
-1 -1 -2 -2 -2 -2 -2 -2 -2 -3 -4 -4 -5 -6 -6 -7 -8 -9 -10 -10 -10 -11 -12 -11 -11 -10 -11 -13 -13 -14 -14 -14

GFSFLT2_700_temp_024.txt.gz
Temp
5 6 6 6 6 6 6 6 5 5 5 5 4 4 4 4 4 4 4 4 3 3 3 3 2 2 2 2 2 2 2 2
6 6 6 6 6 6 6 5 5 5 5 5 4 5 4 4 4 4 3 3 3 3 3 2 2 2 1 1 1 2 2 2
6 5 5 5 6 6 5 5 5 5 4 4 4 4 4 4 4 3 3 3 2 2 2 2 2 1 1 1 1 1 1 1
5 5 5 5 5 5 5 5 5 4 4 4 4 4 4 4 3 3 3 2 2 1 1 1 1 1 1 1 1 1 1 1
5 5 5 5 5 5 4 4 4 4 4 4 4 3 3 3 3 2 2 1 1 1 0 0 1 1 1 1 1 1 1 1
4 4 4 5 5 4 4 4 4 4 3 3 3 3 3 2 2 2 1 1 0 0 0 0 0 1 1 1 1 1 1 1
4 3 4 3 4 4 4 3 3 3 3 3 3 3 2 2 1 1 1 0 -0 -0 -0 -0 -0 -0 -0 -0 -0 0 0 1
3 3 3 3 3 2 2 3 3 3 3 3 2 2 1 1 1 1 0 -0 -0 -1 -1 -1 -1 -1 -0 -1 -1 -0 -0 -0
3 3 3 2 2 2 1 1 2 2 2 2 2 1 1 1 0 -0 -1 -1 -1 -2 -2 -2 -2 -1 -1 -1 -1 -1 -1 -1
3 3 4 3 2 1 0 2 2 2 2 1 1 1 0 -0 -1 -1 -2 -2 -2 -2 -2 -2 -2 -2 -1 -1 -1 -2 -2 -2
3 3 3 2 1 1 1 1 1 1 1 0 -0 -0 -1 -1 -2 -1 -2 -2 -2 -2 -3 -3 -2 -2 -2 -2 -2 -3 -3 -3
4 3 2 1 1 1 1 1 1 0 -0 -0 -1 -1 -1 -2 -1 -1 -1 -1 -2 -2 -2 -3 -2 -2 -2 -2 -2 -3 -3 -3
2 2 1 1 1 1 1 0 0 -0 -1 -1 -1 -2 -2 -2 -2 -2 -2 -2 -2 -2 -2 -2 -3 -3 -3 -3 -3 -4 -4 -5
2 2 2 1 1 0 0 -1 -1 -2 -2 -2 -2 -2 -2 -2 -2 -2 -2 -2 -2 -3 -3 -4 -4 -4 -5 -6 -6 -6 -6 -6
2 2 1 0 -0 -1 -1 -1 -1 -1 -1 -1 -1 -1 -1 -1 -1 -1 -2 -2 -4 -5 -5 -5 -6 -7 -7 -8 -8 -8 -8 -8
2 1 1 0 -0 -0 -0 -0 -1 -1 -1 -1 -1 -1 -1 -2 -2 -4 -5 -5 -5 -6 -6 -7 -8 -8 -8 -8 -8 -9 -9 -8
2 1 1 0 0 -1 -1 -1 -2 -2 -2 -2 -2 -3 -3 -5 -5 -6 -6 -6 -7 -8 -8 -8 -8 -9 -9 -10 -9 -10 -9 -10
1 1 0 -0 -1 -1 -1 -2 -2 -2 -2 -3 -3 -4 -5 -5 -6 -6 -7 -7 -8 -8 -9 -9 -10 -10 -10 -11 -11 -10 -10 -10
1 0 -1 -1 -2 -2 -2 -2 -3 -3 -3 -4 -4 -5 -5 -6 -6 -6 -7 -8 -9 -10 -11 -11 -11 -11 -11 -11 -12 -12 -12 -13
0 -1 -2 -2 -2 -2 -2 -3 -3 -3 -3 -4 -4 -5 -5 -6 -7 -8 -8 -10 -11 -12 -11 -12 -12 -12 -12 -12 -12 -13 -13 -14

GFSFLT2_700_temp_027.txt.gz
Temp
5 5 5 6 6 6 5 5 5 5 5 5 4 4 4 4 4 4 3 3 3 3 3 2 2 2 2 2 2 2 2 2
5 5 5 5 5 5 5 5 5 5 4 4 4 4 4 4 3 3 3 3 2 2 2 2 2 1 1 1 1 1 1 1
5 5 5 5 5 5 5 4 4 4 4 4 3 3 3 3 3 3 3 3 2 2 2 2 2 2 1 1 1 1 1 1
5 5 5 5 4 4 4 4 4 4 3 3 3 3 3 3 3 3 2 2 2 1 1 1 1 1 1 1 1 1 2 2
5 4 4 4 4 4 4 3 3 3 3 3 3 3 3 2 2 2 2 1 1 1 0 0 1 1 1 1 1 1 1 1
4 4 4 4 3 3 3 3 3 3 3 3 3 2 2 2 2 1 1 0 0 -0 -0 -1 -0 0 0 1 1 1 1 1
3 3 3 3 3 2 2 2 2 2 2 2 2 2 2 1 1 0 -0 -0 -1 -1 -1 -1 -1 -0 0 1 1 1 1 1
3 3 3 3 3 2 2 1 2 3 2 2 2 2 1 1 0 -0 -1 -1 -1 -1 -1 -1 -1 0 0 1 1 1 1 1
3 3 3 2 2 2 1 1 1 1 1 1 1 1 1 0 -0 -1 -1 -1 -1 -2 -2 -2 -1 -1 -0 -0 -0 -0 -0 -0
3 3 3 2 1 1 -0 2 1 1 1 0 0 -0 -0 -1 -1 -2 -2 -2 -1 -2 -1 -1 -1 -1 -2 -2 -2 -2 -2 -1
3 3 3 3 0 1 1 1 1 1 1 0 -0 -0 -1 -1 -1 -1 -1 -1 -1 -1 -1 -2 -2 -2 -2 -2 -2 -2 -2 -3
4 3 2 2 0 2 1 1 0 1 -0 -1 -0 -1 -1 -1 -1 -1 -1 -1 -2 -2 -2 -2 -2 -2 -1 -1 -2 -2 -3 -3
3 2 1 1 1 1 1 1 1 -1 -1 -1 -1 -1 -1 -2 -2 -2 -2 -2 -2 -2 -2 -2 -2 -2 -2 -2 -3 -3 -4 -5
3 2 2 1 1 1 -0 -0 -1 -1 -1 -1 -1 -2 -2 -2 -2 -2 -2 -2 -3 -3 -3 -3 -3 -3 -4 -4 -5 -6 -6 -7
2 2 1 1 -0 -1 -1 -1 -1 -1 -1 -1 -1 -1 -2 -2 -2 -2 -3 -3 -3 -4 -4 -5 -5 -6 -7 -7 -8 -8 -9 -9
1 1 1 -0 -1 -1 -1 -1 -1 -1 -2 -2 -2 -2 -3 -3 -3 -3 -4 -4 -5 -6 -6 -7 -7 -8 -9 -9 -10 -10 -10 -10
1 1 1 0 -0 -1 -1 -2 -2 -2 -2 -2 -3 -3 -3 -3 -4 -5 -5 -6 -6 -6 -7 -7 -8 -10 -11 -11 -11 -11 -11 -11
1 1 0 0 -0 -1 -2 -2 -2 -2 -2 -3 -3 -4 -4 -5 -5 -5 -6 -6 -7 -7 -8 -10 -11 -11 -12 -12 -12 -12 -11 -12
1 0 -0 -1 -1 -2 -2 -2 -2 -3 -3 -4 -4 -4 -4 -5 -6 -6 -7 -8 -8 -9 -10 -11 -12 -12 -12 -12 -12 -13 -13 -13
0 -0 -1 -2 -2 -2 -3 -3 -3 -3 -3 -3 -4 -5 -5 -6 -7 -8 -8 -9 -10 -11 -12 -13 -13 -13 -13 -13 -14 -14 -14 -14

GFSFLT2_700_temp_030.txt.gz
Temp
5 5 5 5 5 5 5 5 5 4 4 4 4 4 4 3 3 3 3 3 3 3 2 2 2 2 2 2 2 2 2 2
5 5 5 5 5 5 5 4 4 4 4 4 4 3 3 3 3 3 3 3 3 2 2 2 1 1 1 1 1 2 1 1
5 5 5 5 5 5 4 4 4 3 3 3 3 3 3 3 3 3 3 2 2 2 2 2 1 1 1 1 1 1 1 2
5 5 5 4 4 4 4 3 3 3 3 3 3 2 2 2 2 2 2 2 1 1 1 1 1 1 1 1 1 1 2 2
4 4 4 4 4 4 3 3 3 3 2 2 2 2 2 2 1 1 1 1 1 1 1 1 1 1 1 1 1 1 2 2
4 4 4 4 3 3 3 2 2 2 2 2 2 1 1 1 1 1 0 0 0 0 1 0 1 1 1 1 1 2 2 2
3 4 3 3 3 3 2 2 2 2 1 1 1 1 1 1 0 0 0 -0 -0 -0 -1 -1 -0 -0 0 0 1 1 1 1
3 3 3 3 3 2 2 2 1 2 1 0 -0 -0 0 -0 -0 -0 -0 -1 -1 -1 -0 -1 -1 -0 -0 0 0 0 0 1
3 3 3 3 3 2 1 0 1 0 1 -0 1 -0 -0 -0 -1 -0 -0 -0 -1 -1 -0 -1 -1 -1 -1 -1 -1 -1 -0 -0
3 3 3 3 2 1 0 2 1 2 1 0 0 -0 -0 -0 -1 -0 -0 -1 -1 -1 -1 -1 -1 -1 -1 -1 -1 -1 -1 -1
3 3 3 3 0 0 -0 0 0 1 0 0 -0 -1 -0 -1 -0 -0 -1 -1 -1 -1 -1 -2 -2 -2 -1 -1 -1 -1 -1 -1
3 3 2 2 1 0 2 1 1 1 1 0 -1 -1 -1 -0 -1 -1 -1 -2 -2 -2 -2 -2 -2 -2 -1 -2 -1 -1 -2 -2
3 2 2 1 2 1 1 1 1 0 -0 -1 -1 -1 -1 -1 -2 -2 -2 -2 -2 -2 -2 -2 -3 -2 -2 -3 -3 -3 -3 -3
3 3 2 2 1 1 1 0 -0 -1 -1 -1 -1 -1 -1 -1 -2 -2 -2 -3 -3 -3 -3 -3 -4 -4 -4 -4 -5 -6 -8 -9
3 2 2 1 1 0 -0 -1 -1 -1 -2 -2 -2 -2 -2 -2 -3 -3 -3 -4 -4 -4 -4 -5 -5 -6 -6 -6 -7 -9 -8 -9
2 2 1 1 -0 -1 -1 -1 -2 -2 -2 -2 -2 -2 -3 -3 -3 -4 -4 -5 -5 -5 -5 -5 -6 -6 -7 -8 -9 -10 -11 -12
2 1 1 0 -0 -1 -1 -2 -2 -2 -2 -2 -3 -3 -3 -4 -4 -5 -5 -5 -5 -6 -6 -7 -7 -8 -9 -10 -12 -12 -13 -14
1 1 1 0 -0 -1 -2 -2 -3 -3 -3 -3 -3 -4 -4 -4 -4 -5 -5 -6 -7 -7 -8 -9 -10 -11 -11 -12 -14 -14 -14 -15
1 1 0 -1 -1 -2 -2 -2 -3 -3 -3 -3 -4 -4 -4 -5 -5 -6 -7 -8 -8 -9 -10 -12 -12 -13 -13 -13 -14 -14 -15 -15
1 0 -0 -1 -2 -2 -2 -2 -3 -3 -3 -4 -4 -4 -5 -5 -6 -7 -8 -8 -9 -10 -11 -12 -12 -13 -13 -14 -14 -14 -15 -15

GFSFLT2_700_temp_036.txt.gz
Temp
3 2 4 5 5 5 5 5 4 4 4 4 3 3 3 3 3 3 3 3 3 2 2 2 2 2 1 1 1 1 1 1
3 3 5 4 4 4 4 4 3 4 4 3 3 3 3 2 2 2 2 2 2 2 2 2 2 2 2 1 1 1 1 0
2 4 4 5 5 4 4 4 4 4 3 3 3 3 3 2 2 2 2 1 1 1 1 1 1 1 2 1 2 1 1 1
4 4 5 5 5 5 4 4 3 3 3 3 2 2 2 2 2 2 1 1 1 1 1 1 1 1 1 1 1 1 1 1
3 4 5 5 5 5 4 3 3 3 3 3 3 2 2 2 2 2 1 1 1 1 1 1 1 1 1 1 2 2 1 1
5 5 5 5 5 3 3 3 3 3 2 2 2 2 2 2 2 1 0 -0 1 0 0 0 0 1 1 1 1 1 1 1
5 5 5 4 4 4 4 3 2 2 2 3 3 2 3 2 2 0 0 1 -0 0 0 -1 0 1 0 0 1 1 1 0
5 5 4 4 4 4 3 2 2 2 3 3 3 3 3 2 2 0 -0 -0 -0 0 0 -0 -0 0 0 0 0 1 0 -0
4 4 4 4 4 4 3 2 2 2 3 4 3 2 2 1 1 0 -0 -0 0 0 -0 -0 -1 -0 0 0 0 0 -0 -0
4 4 4 4 3 3 3 1 2 2 3 2 2 2 1 1 1 0 0 0 0 0 0 -0 0 0 0 -0 -0 -1 -1 -1
4 4 4 3 2 2 2 1 1 1 1 2 2 1 1 0 1 0 0 0 1 1 0 0 -0 -1 -1 -1 -1 -0 -1 -1
4 4 3 3 2 2 3 2 2 2 1 1 1 1 0 0 1 0 -0 0 -0 -1 -1 -1 -1 -1 -1 -1 -1 -1 -1 -2
4 4 3 3 2 2 3 2 2 2 1 2 1 1 0 0 -0 -0 -0 -1 -1 -1 -1 -1 -1 -1 -1 -1 -1 -2 -2 -4
4 4 3 3 2 2 2 2 2 1 1 1 1 0 -0 -0 -1 -1 -1 -1 -2 -2 -2 -2 -2 -2 -2 -2 -2 -2 -2 -3
4 4 3 3 2 2 2 2 1 1 1 0 0 -0 -1 -1 -1 -1 -2 -2 -2 -3 -3 -3 -3 -3 -4 -4 -4 -4 -4 -5
4 4 3 3 2 2 1 1 0 0 0 0 -0 -1 -1 -2 -2 -2 -2 -3 -3 -3 -4 -4 -4 -4 -5 -5 -7 -7 -7 -7
4 4 3 3 2 1 1 -0 -0 -1 -1 -2 -3 -2 -2 -2 -2 -2 -3 -3 -4 -4 -4 -5 -5 -6 -7 -7 -8 -9 -11 -12
4 3 2 2 1 1 0 -0 -1 -1 -1 -2 -2 -2 -3 -4 -3 -4 -4 -4 -5 -5 -6 -6 -7 -7 -8 -9 -11 -11 -12 -12
3 2 2 2 2 1 0 -0 -0 -1 -1 -1 -2 -3 -3 -4 -4 -4 -4 -5 -5 -6 -6 -7 -8 -8 -9 -10 -11 -12 -12 -13
3 2 2 2 1 1 1 0 -0 -0 -1 -2 -3 -3 -3 -4 -4 -4 -5 -5 -6 -6 -7 -8 -9 -9 -11 -11 -12 -12 -12 -13

GFSFLT2_700_temp_039.txt.gz
Temp
3 2 2 3 5 5 6 5 5 5 4 4 4 4 4 3 3 3 3 3 3 2 2 2 2 2 1 1 1 0 1 1
2 1 3 3 4 5 5 5 5 4 4 4 4 4 4 3 3 3 3 3 3 2 2 2 1 2 2 2 1 1 1 1
2 2 2 4 4 5 5 5 5 4 4 4 4 4 4 4 3 3 3 2 2 1 2 1 1 1 2 2 1 1 1 1
3 2 3 4 5 5 4 5 4 4 4 4 4 4 3 3 3 3 3 2 2 2 1 1 1 1 1 2 1 1 1 1
3 3 4 5 5 5 5 5 5 4 4 4 4 4 4 3 2 2 2 1 1 1 1 1 1 1 1 1 1 2 1 1
3 4 4 4 4 5 5 5 4 4 3 3 4 3 3 3 3 3 2 0 0 0 1 0 0 1 0 1 1 1 1 0
3 4 4 4 5 5 5 4 4 4 3 3 3 3 3 3 2 2 1 -0 1 0 0 0 0 1 1 0 0 1 0 0
4 4 4 5 5 5 5 4 4 3 3 3 3 3 2 2 1 0 0 -0 0 0 0 1 1 1 0 -0 -0 0 0 0
5 5 5 5 4 4 4 4 4 3 3 3 2 2 1 1 1 1 1 1 0 1 1 1 0 0 0 1 1 0 0 -0
5 5 4 4 3 3 3 3 3 2 2 2 2 2 1 1 1 1 1 1 1 1 1 1 1 1 1 0 -0 0 -0 -0
5 5 4 3 4 3 3 3 2 2 1 1 1 1 1 1 1 1 1 1 1 1 1 1 0 0 0 -0 -0 -0 -0 -0
5 5 4 4 3 3 2 2 2 2 2 3 2 1 1 1 1 1 1 1 0 0 0 0 0 0 -0 -0 -0 -1 -1 -1
5 4 3 3 3 2 1 2 2 2 2 2 2 1 1 1 1 1 0 0 0 0 -0 -0 -1 -1 -1 -1 -1 -1 -2 -2
5 4 3 3 2 2 2 2 2 2 2 1 1 1 1 0 -0 -0 -0 -0 -1 -1 -1 -1 -2 -2 -2 -2 -1 -1 -2 -2
5 4 3 3 3 3 2 2 2 2 1 1 1 0 -0 -0 -0 -1 -1 -1 -1 -2 -2 -2 -2 -2 -3 -3 -3 -2 -3 -3
4 4 4 3 3 4 3 2 1 1 1 1 -0 -1 -1 -1 -1 -1 -1 -2 -2 -2 -3 -3 -3 -3 -4 -4 -4 -5 -5 -4
5 4 4 4 4 3 3 2 1 1 1 0 0 -0 -0 -1 -1 -2 -2 -2 -3 -3 -3 -3 -4 -4 -5 -5 -6 -6 -7 -8
5 4 4 4 3 3 2 1 1 1 0 -0 -1 -1 -2 -2 -3 -2 -3 -4 -4 -4 -5 -5 -5 -6 -6 -7 -8 -8 -9 -10
5 4 4 3 3 2 2 1 1 1 -0 -1 -1 -2 -2 -3 -3 -3 -4 -5 -5 -5 -5 -5 -6 -6 -7 -7 -8 -10 -10 -11
4 4 3 3 2 2 1 1 1 0 -0 -1 -1 -2 -2 -3 -3 -5 -4 -5 -5 -5 -6 -6 -6 -7 -8 -8 -9 -11 -12 -12

GFSFLT2_700_temp_042.txt.gz
Temp
4 3 1 2 2 2 4 5 5 6 5 5 5 5 5 5 5 4 4 3 3 3 3 3 2 2 2 1 1 1 2 2
3 2 1 2 2 3 4 5 5 5 5 5 5 5 5 4 4 4 3 3 3 3 2 2 2 2 2 2 2 1 1 1
2 2 2 1 3 4 4 4 4 5 5 4 4 4 4 4 4 4 3 3 3 2 1 2 2 2 2 1 1 1 1 1
1 1 2 2 3 4 4 4 5 4 4 4 4 4 4 3 3 3 3 2 1 1 1 1 2 2 2 2 2 2 2 1
2 1 3 3 4 4 4 4 4 4 3 3 3 3 3 3 4 3 2 1 1 1 1 1 1 2 2 2 2 2 1 1
2 3 3 3 4 4 4 4 4 4 3 3 4 3 3 3 3 3 2 1 1 1 1 1 2 1 1 1 1 1 1 1
3 3 3 4 4 4 4 4 4 3 4 4 3 3 3 3 2 2 2 1 1 1 1 1 1 1 1 0 0 -0 0 0
3 3 3 4 4 4 4 4 4 3 3 3 3 3 2 2 1 1 1 1 1 0 1 1 1 0 0 0 -0 0 0 0
4 4 4 4 4 4 4 3 3 3 3 2 2 2 2 2 1 0 1 1 1 1 1 1 0 0 0 1 1 1 1 0
5 4 4 4 4 4 3 3 3 3 2 2 1 2 2 1 1 1 1 1 1 1 0 0 0 1 1 1 0 -0 -0 -0
5 4 3 3 3 3 3 3 3 2 2 1 2 1 1 1 1 1 1 1 1 1 0 0 1 1 1 0 -0 -1 -1 -1
5 4 4 4 4 4 4 3 3 2 2 3 3 3 2 2 1 1 1 1 0 0 0 0 0 0 0 -0 -0 -1 -1 -1
5 4 4 4 4 4 3 2 2 2 3 3 3 2 2 2 1 1 0 0 0 0 -0 -0 -0 -0 -1 -1 -1 -1 -1 -2
5 5 4 4 4 3 3 2 3 3 3 2 2 1 1 1 0 0 0 0 -0 -1 -1 -1 -1 -1 -1 -1 -2 -1 -1 -2
5 4 4 3 3 3 3 3 3 2 2 1 1 1 0 0 -0 -0 -0 -1 -2 -2 -1 -2 -2 -2 -2 -3 -2 -2 -2 -3
5 4 4 3 3 3 3 2 2 2 1 1 1 0 -0 -0 -0 -1 -1 -1 -2 -2 -2 -2 -2 -3 -3 -3 -4 -4 -4 -4
4 4 4 4 3 3 3 2 2 2 1 1 0 -0 0 -0 -1 -2 -3 -3 -3 -3 -3 -2 -3 -4 -4 -5 -5 -5 -6 -6
4 3 4 3 4 3 3 2 2 2 1 1 0 0 -0 -1 -2 -2 -3 -4 -3 -3 -3 -4 -5 -5 -6 -6 -6 -6 -7 -7
3 3 3 2 3 3 3 2 2 1 1 0 0 -0 -1 -2 -3 -3 -3 -3 -3 -6 -6 -6 -5 -6 -6 -6 -7 -7 -7 -8
4 4 3 3 3 3 2 2 1 1 0 -0 -1 -2 -2 -2 -2 -3 -4 -6 -5 -6 -7 -6 -6 -6 -7 -8 -8 -8 -9 -9

GFSFLT2_700_temp_045.txt.gz
Temp
4 3 2 0 1 3 3 4 2 4 4 4 4 5 5 5 4 4 4 4 4 3 3 3 3 2 2 2 2 2 2 2
3 3 1 -1 1 2 3 3 3 4 4 4 4 4 4 4 4 4 4 3 3 2 3 2 3 3 2 2 2 2 2 2
2 1 1 -0 2 3 2 2 3 3 4 4 4 4 4 4 4 4 3 2 3 2 2 2 2 2 2 2 2 1 1 2
2 1 0 0 2 3 2 2 3 3 3 3 3 3 3 3 4 3 2 3 3 2 2 1 1 2 2 2 2 2 2 2
1 -0 1 2 2 2 2 3 3 3 3 3 3 3 3 3 3 3 2 2 2 2 2 2 2 2 2 2 2 2 2 2
2 1 2 2 2 2 3 3 3 3 3 3 3 3 3 3 2 3 2 2 2 1 1 1 1 1 1 1 1 1 1 1
2 3 2 2 2 2 3 3 3 3 3 3 3 2 3 2 2 2 1 1 1 1 1 1 1 0 0 0 0 0 0 0
3 4 3 3 3 3 3 3 3 3 3 3 2 2 2 2 2 1 1 1 1 1 0 0 0 0 -0 -0 0 0 1 1
4 4 4 4 3 3 3 3 3 3 2 2 2 2 1 1 1 1 1 0 0 0 0 -0 -0 -0 -0 -0 0 1 1 1
4 4 4 4 3 3 3 3 3 3 2 2 2 2 1 1 1 1 0 0 0 -0 -0 -0 0 -0 -0 0 1 1 1 0
4 4 4 4 4 3 3 3 2 2 2 2 2 1 1 1 1 0 -0 -0 -0 -0 -0 -0 -0 0 0 0 1 0 -0 -0
4 4 4 3 3 3 3 3 3 3 2 2 2 1 1 2 1 -0 -0 -0 -0 0 -0 -0 0 0 0 0 -0 -0 -1 -1
4 4 4 3 3 3 3 3 3 2 2 2 2 1 2 2 1 1 1 1 0 -0 -0 -0 -0 -0 -0 -1 -1 -1 -1 -2
5 4 4 4 3 3 3 3 3 2 2 2 2 2 2 1 1 1 0 0 -0 -1 -1 -1 -1 -1 -1 -1 -1 -2 -2 -3
5 4 4 3 3 3 3 3 2 2 2 2 2 2 1 1 0 0 -0 -1 -1 -1 -2 -2 -2 -2 -2 -2 -3 -3 -3 -3
4 4 4 3 3 3 3 3 3 2 2 2 2 1 0 0 -0 -0 -1 -1 -2 -2 -3 -2 -3 -3 -3 -3 -4 -4 -4 -4
4 4 4 3 3 3 3 3 2 2 2 2 1 1 0 -0 -0 -1 -1 -2 -2 -2 -3 -2 -3 -4 -4 -5 -5 -5 -5 -6
4 4 3 3 3 3 3 2 2 2 1 1 1 0 0 -0 -1 -1 -2 -2 -2 -3 -4 -3 -4 -5 -5 -5 -6 -6 -7 -7
4 4 3 2 2 2 3 2 2 1 1 1 1 -0 -0 -1 -1 -2 -2 -3 -3 -4 -4 -4 -4 -6 -7 -7 -7 -7 -8 -8
4 4 3 3 4 3 2 2 2 2 1 0 -0 -1 -1 -2 -2 -3 -3 -3 -4 -4 -4 -4 -5 -7 -8 -8 -8 -8 -9 -9

GFSFLT2_700_temp_048.txt.gz
Temp
5 4 4 3 1 1 3 4 4 4 3 4 4 4 4 4 4 3 3 3 3 3 3 3 3 3 3 3 2 2 2 2
4 3 3 2 -1 2 3 3 3 3 3 3 3 3 4 3 3 3 3 3 3 3 2 3 2 2 2 2 2 2 2 2
3 3 2 -0 -1 1 1 2 3 2 3 3 3 3 3 4 4 3 3 3 3 2 2 2 2 2 2 2 2 2 2 2
3 3 2 0 -1 1 2 2 2 2 3 2 3 3 3 3 3 3 3 3 2 2 2 2 2 2 2 2 2 2 1 1
3 2 1 0 -1 2 2 3 2 2 2 2 3 3 2 3 3 2 2 2 2 2 2 1 1 2 2 2 1 1 1 1
1 1 1 1 1 2 2 2 2 2 2 2 2 2 3 2 2 2 2 2 1 2 1 1 1 1 1 1 1 1 1 1
2 2 2 3 4 3 1 2 2 2 2 2 2 2 2 2 2 1 1 1 1 1 1 1 1 0 0 0 0 0 0 0
2 1 2 2 3 3 3 2 2 2 2 2 2 2 1 1 1 1 1 1 0 0 0 1 0 -0 -0 -0 -0 -0 -0 0
2 2 3 4 3 3 3 2 2 2 2 2 2 2 1 1 1 1 1 -0 -0 -0 0 -0 -0 -1 -0 -0 -0 -0 0 0
3 3 4 4 3 3 3 2 2 2 2 2 1 1 1 1 1 1 0 0 -0 -0 -0 -1 -1 -1 -0 -0 -0 -0 0 0
4 4 4 4 4 3 3 3 2 2 2 2 1 1 1 1 1 1 1 -0 -0 -1 -1 -1 -1 -1 -1 -0 -0 -0 0 -0
4 4 4 4 3 3 3 3 3 2 2 2 2 1 1 1 1 1 0 -0 -0 -1 -2 -2 -1 -1 -1 -0 -0 -1 -1 -1
4 4 4 4 3 3 3 2 2 2 2 2 2 1 1 1 1 1 -0 -0 -1 -1 -1 -1 -1 -1 -0 -0 -0 -1 -1 -1
4 4 4 3 3 3 3 2 2 2 2 2 1 1 1 1 1 0 0 -0 -1 -1 -1 -1 -1 -1 -1 -1 -2 -2 -2 -2
5 4 4 4 3 3 3 3 2 2 2 1 1 1 1 1 1 0 0 -0 -0 -1 -1 -1 -1 -2 -2 -3 -3 -3 -2 -2
5 4 4 4 3 3 3 3 2 2 2 1 1 2 1 1 1 0 0 -0 -1 -1 -1 -2 -2 -2 -3 -4 -4 -4 -4 -3
4 4 4 3 3 3 3 3 2 2 1 2 1 1 1 1 0 0 -0 -1 -1 -1 -2 -2 -3 -4 -4 -5 -4 -4 -5 -5
5 4 4 3 3 3 2 2 2 1 1 1 1 1 1 0 0 -0 -1 -2 -3 -3 -3 -3 -3 -4 -5 -5 -5 -5 -5 -6
5 4 4 4 3 3 1 2 2 1 1 1 1 1 0 -0 -1 -1 -1 -2 -3 -3 -3 -4 -5 -5 -5 -5 -6 -7 -7 -8
4 4 3 3 3 2 2 3 2 1 1 1 1 0 -0 0 -2 -3 -2 -3 -4 -3 -5 -5 -6 -5 -5 -6 -7 -8 -9 -10